Year,Month,Day,Hour,Minute,Value (Times are PST for temperature in C)
2012,03,05,00,00,6.90
2012,03,05,00,01,6.90
2012,03,05,00,02,6.90
2012,03,05,00,03,6.90
2012,03,05,00,04,6.90
2012,03,05,00,05,6.90
2012,03,05,00,06,6.90
2012,03,05,00,07,6.90
2012,03,05,00,08,6.90
2012,03,05,00,09,6.90
2012,03,05,00,10,6.90
2012,03,05,00,11,6.90
2012,03,05,00,12,6.90
2012,03,05,00,13,6.90
2012,03,05,00,14,6.90
2012,03,05,00,15,6.90
2012,03,05,00,16,6.90
2012,03,05,00,17,6.90
2012,03,05,00,18,6.90
2012,03,05,00,19,6.80
2012,03,05,00,20,6.80
2012,03,05,00,21,6.80
2012,03,05,00,22,6.80
2012,03,05,00,23,6.80
2012,03,05,00,24,6.80
2012,03,05,00,25,6.80
2012,03,05,00,26,6.80
2012,03,05,00,27,6.80
2012,03,05,00,28,6.80
2012,03,05,00,29,6.80
2012,03,05,00,30,6.80
2012,03,05,00,31,6.80
2012,03,05,00,32,6.80
2012,03,05,00,33,6.80
2012,03,05,00,34,6.80
2012,03,05,00,35,6.80
2012,03,05,00,36,6.80
2012,03,05,00,37,6.80
2012,03,05,00,38,6.80
2012,03,05,00,39,6.80
2012,03,05,00,40,6.80
2012,03,05,00,41,6.80
2012,03,05,00,42,6.80
2012,03,05,00,43,6.80
2012,03,05,00,44,6.80
2012,03,05,00,45,6.80
2012,03,05,00,46,6.80
2012,03,05,00,47,6.80
2012,03,05,00,48,6.80
2012,03,05,00,49,6.80
2012,03,05,00,50,6.80
2012,03,05,00,51,6.80
2012,03,05,00,52,6.80
2012,03,05,00,53,6.80
2012,03,05,00,54,6.80
2012,03,05,00,55,6.80
2012,03,05,00,56,6.80
2012,03,05,00,57,6.80
2012,03,05,00,58,6.80
2012,03,05,00,59,6.80
2012,03,05,01,00,6.80
2012,03,05,01,01,6.80
2012,03,05,01,02,6.80
2012,03,05,01,03,6.80
2012,03,05,01,04,6.80
2012,03,05,01,05,6.80
2012,03,05,01,06,6.80
2012,03,05,01,07,6.80
2012,03,05,01,08,6.80
2012,03,05,01,09,6.80
2012,03,05,01,10,6.80
2012,03,05,01,11,6.80
2012,03,05,01,12,6.80
2012,03,05,01,13,6.80
2012,03,05,01,14,6.80
2012,03,05,01,15,6.80
2012,03,05,01,16,6.80
2012,03,05,01,17,6.80
2012,03,05,01,18,6.80
2012,03,05,01,19,6.80
2012,03,05,01,20,6.80
2012,03,05,01,21,6.80
2012,03,05,01,22,6.80
2012,03,05,01,23,6.80
2012,03,05,01,24,6.80
2012,03,05,01,25,6.80
2012,03,05,01,26,6.80
2012,03,05,01,27,6.80
2012,03,05,01,28,6.80
2012,03,05,01,29,6.80
2012,03,05,01,30,6.80
2012,03,05,01,31,6.80
2012,03,05,01,32,6.80
2012,03,05,01,33,6.80
2012,03,05,01,34,6.80
2012,03,05,01,35,6.80
2012,03,05,01,36,6.80
2012,03,05,01,37,6.80
2012,03,05,01,38,6.80
2012,03,05,01,39,6.80
2012,03,05,01,40,6.80
2012,03,05,01,41,6.80
2012,03,05,01,42,6.80
2012,03,05,01,43,6.80
2012,03,05,01,44,6.80
2012,03,05,01,45,6.80
2012,03,05,01,46,6.80
2012,03,05,01,47,6.80
2012,03,05,01,48,6.80
2012,03,05,01,49,6.70
2012,03,05,01,50,6.70
2012,03,05,01,51,6.70
2012,03,05,01,52,6.70
2012,03,05,01,53,6.70
2012,03,05,01,54,6.70
2012,03,05,01,55,6.70
2012,03,05,01,56,6.70
2012,03,05,01,57,6.70
2012,03,05,01,58,6.70
2012,03,05,01,59,6.70
2012,03,05,02,00,6.70
2012,03,05,02,01,6.70
2012,03,05,02,02,6.70
2012,03,05,02,03,6.70
2012,03,05,02,04,6.70
2012,03,05,02,05,6.70
2012,03,05,02,06,6.70
2012,03,05,02,07,6.70
2012,03,05,02,08,6.70
2012,03,05,02,09,6.70
2012,03,05,02,10,6.70
2012,03,05,02,11,6.70
2012,03,05,02,12,6.70
2012,03,05,02,13,6.70
2012,03,05,02,14,6.70
2012,03,05,02,15,6.70
2012,03,05,02,16,6.70
2012,03,05,02,17,6.70
2012,03,05,02,18,6.70
2012,03,05,02,19,6.70
2012,03,05,02,20,6.70
2012,03,05,02,21,6.60
2012,03,05,02,22,6.60
2012,03,05,02,23,6.60
2012,03,05,02,24,6.60
2012,03,05,02,25,6.60
2012,03,05,02,26,6.60
2012,03,05,02,27,6.60
2012,03,05,02,28,6.60
2012,03,05,02,29,6.60
2012,03,05,02,30,6.60
2012,03,05,02,31,6.60
2012,03,05,02,32,6.60
2012,03,05,02,33,6.60
2012,03,05,02,34,6.60
2012,03,05,02,35,6.60
2012,03,05,02,36,6.60
2012,03,05,02,37,6.60
2012,03,05,02,38,6.60
2012,03,05,02,39,6.60
2012,03,05,02,40,6.60
2012,03,05,02,41,6.60
2012,03,05,02,42,6.60
2012,03,05,02,43,6.60
2012,03,05,02,44,6.60
2012,03,05,02,45,6.60
2012,03,05,02,46,6.60
2012,03,05,02,47,6.60
2012,03,05,02,48,6.60
2012,03,05,02,49,6.60
2012,03,05,02,50,6.60
2012,03,05,02,51,6.60
2012,03,05,02,52,6.60
2012,03,05,02,53,6.60
2012,03,05,02,54,6.60
2012,03,05,02,55,6.60
2012,03,05,02,56,6.60
2012,03,05,02,57,6.60
2012,03,05,02,58,6.60
2012,03,05,02,59,6.60
2012,03,05,03,00,6.60
2012,03,05,03,01,6.60
2012,03,05,03,02,6.60
2012,03,05,03,03,6.60
2012,03,05,03,04,6.60
2012,03,05,03,05,6.60
2012,03,05,03,06,6.60
2012,03,05,03,07,6.60
2012,03,05,03,08,6.60
2012,03,05,03,09,6.60
2012,03,05,03,10,6.60
2012,03,05,03,11,6.60
2012,03,05,03,12,6.60
2012,03,05,03,13,6.60
2012,03,05,03,14,6.60
2012,03,05,03,15,6.60
2012,03,05,03,16,6.60
2012,03,05,03,17,6.50
2012,03,05,03,18,6.50
2012,03,05,03,19,6.60
2012,03,05,03,20,6.60
2012,03,05,03,21,6.60
2012,03,05,03,22,6.60
2012,03,05,03,23,6.60
2012,03,05,03,24,6.60
2012,03,05,03,25,6.60
2012,03,05,03,26,6.60
2012,03,05,03,27,6.60
2012,03,05,03,28,6.60
2012,03,05,03,29,6.60
2012,03,05,03,30,6.60
2012,03,05,03,31,6.60
2012,03,05,03,32,6.60
2012,03,05,03,33,6.60
2012,03,05,03,34,6.60
2012,03,05,03,35,6.60
2012,03,05,03,36,6.60
2012,03,05,03,37,6.60
2012,03,05,03,38,6.60
2012,03,05,03,39,6.60
2012,03,05,03,40,6.60
2012,03,05,03,41,6.60
2012,03,05,03,42,6.60
2012,03,05,03,43,6.60
2012,03,05,03,44,6.60
2012,03,05,03,45,6.60
2012,03,05,03,46,6.60
2012,03,05,03,47,6.60
2012,03,05,03,48,6.60
2012,03,05,03,49,6.60
2012,03,05,03,50,6.60
2012,03,05,03,51,6.60
2012,03,05,03,52,6.60
2012,03,05,03,53,6.60
2012,03,05,03,54,6.60
2012,03,05,03,55,6.60
2012,03,05,03,56,6.60
2012,03,05,03,57,6.60
2012,03,05,03,58,6.60
2012,03,05,03,59,6.60
2012,03,05,04,00,6.60
2012,03,05,04,01,6.60
2012,03,05,04,02,6.60
2012,03,05,04,03,6.60
2012,03,05,04,04,6.60
2012,03,05,04,05,6.50
2012,03,05,04,06,6.40
2012,03,05,04,07,6.40
2012,03,05,04,08,6.40
2012,03,05,04,09,6.40
2012,03,05,04,10,6.40
2012,03,05,04,11,6.40
2012,03,05,04,12,6.40
2012,03,05,04,13,6.40
2012,03,05,04,14,6.40
2012,03,05,04,15,6.40
2012,03,05,04,16,6.40
2012,03,05,04,17,6.40
2012,03,05,04,18,6.40
2012,03,05,04,19,6.40
2012,03,05,04,20,6.40
2012,03,05,04,21,6.40
2012,03,05,04,22,6.40
2012,03,05,04,23,6.40
2012,03,05,04,24,6.40
2012,03,05,04,25,6.40
2012,03,05,04,26,6.40
2012,03,05,04,27,6.40
2012,03,05,04,28,6.40
2012,03,05,04,29,6.40
2012,03,05,04,30,6.40
2012,03,05,04,31,6.40
2012,03,05,04,32,6.40
2012,03,05,04,33,6.40
2012,03,05,04,34,6.40
2012,03,05,04,35,6.40
2012,03,05,04,36,6.40
2012,03,05,04,37,6.40
2012,03,05,04,38,6.40
2012,03,05,04,39,6.40
2012,03,05,04,40,6.40
2012,03,05,04,41,6.40
2012,03,05,04,42,6.40
2012,03,05,04,43,6.40
2012,03,05,04,44,6.40
2012,03,05,04,45,6.40
2012,03,05,04,46,6.40
2012,03,05,04,47,6.40
2012,03,05,04,48,6.40
2012,03,05,04,49,6.40
2012,03,05,04,50,6.40
2012,03,05,04,51,6.40
2012,03,05,04,52,6.40
2012,03,05,04,53,6.40
2012,03,05,04,54,6.40
2012,03,05,04,55,6.40
2012,03,05,04,56,6.40
2012,03,05,04,57,6.40
2012,03,05,04,58,6.40
2012,03,05,04,59,6.40
2012,03,05,05,00,6.40
2012,03,05,05,01,6.40
2012,03,05,05,02,6.30
2012,03,05,05,03,6.30
2012,03,05,05,04,6.30
2012,03,05,05,05,6.30
2012,03,05,05,06,6.30
2012,03,05,05,07,6.30
2012,03,05,05,08,6.30
2012,03,05,05,09,6.30
2012,03,05,05,10,6.30
2012,03,05,05,11,6.30
2012,03,05,05,12,6.30
2012,03,05,05,13,6.20
2012,03,05,05,14,6.20
2012,03,05,05,15,6.20
2012,03,05,05,16,6.20
2012,03,05,05,17,6.20
2012,03,05,05,18,6.20
2012,03,05,05,19,6.20
2012,03,05,05,20,6.20
2012,03,05,05,21,6.20
2012,03,05,05,22,6.20
2012,03,05,05,23,6.20
2012,03,05,05,24,6.20
2012,03,05,05,25,6.20
2012,03,05,05,26,6.20
2012,03,05,05,27,6.20
2012,03,05,05,28,6.20
2012,03,05,05,29,6.20
2012,03,05,05,30,6.20
2012,03,05,05,31,6.20
2012,03,05,05,32,6.20
2012,03,05,05,33,6.20
2012,03,05,05,34,6.20
2012,03,05,05,35,6.20
2012,03,05,05,36,6.20
2012,03,05,05,37,6.20
2012,03,05,05,38,6.20
2012,03,05,05,39,6.20
2012,03,05,05,40,6.20
2012,03,05,05,41,6.20
2012,03,05,05,42,6.20
2012,03,05,05,43,6.20
2012,03,05,05,44,6.20
2012,03,05,05,45,6.20
2012,03,05,05,46,6.20
2012,03,05,05,47,6.20
2012,03,05,05,48,6.20
2012,03,05,05,49,6.10
2012,03,05,05,50,6.10
2012,03,05,05,51,6.10
2012,03,05,05,52,6.10
2012,03,05,05,53,6.10
2012,03,05,05,54,6.10
2012,03,05,05,55,6.10
2012,03,05,05,56,6.10
2012,03,05,05,57,6.00
2012,03,05,05,58,6.00
2012,03,05,05,59,6.00
2012,03,05,06,00,6.00
2012,03,05,06,01,6.00
2012,03,05,06,02,6.00
2012,03,05,06,03,6.00
2012,03,05,06,04,6.00
2012,03,05,06,05,6.00
2012,03,05,06,06,6.00
2012,03,05,06,07,6.00
2012,03,05,06,08,6.00
2012,03,05,06,09,6.00
2012,03,05,06,10,6.00
2012,03,05,06,11,6.00
2012,03,05,06,12,6.00
2012,03,05,06,13,6.00
2012,03,05,06,14,6.00
2012,03,05,06,15,5.90
2012,03,05,06,16,5.90
2012,03,05,06,17,5.90
2012,03,05,06,18,5.90
2012,03,05,06,19,5.90
2012,03,05,06,20,5.90
2012,03,05,06,21,5.90
2012,03,05,06,22,5.90
2012,03,05,06,23,5.90
2012,03,05,06,24,5.90
2012,03,05,06,25,5.90
2012,03,05,06,26,5.90
2012,03,05,06,27,5.90
2012,03,05,06,28,5.90
2012,03,05,06,29,5.90
2012,03,05,06,30,5.90
2012,03,05,06,31,5.80
2012,03,05,06,32,5.80
2012,03,05,06,33,5.80
2012,03,05,06,34,5.80
2012,03,05,06,35,5.80
2012,03,05,06,36,5.80
2012,03,05,06,37,5.70
2012,03,05,06,38,5.70
2012,03,05,06,39,5.70
2012,03,05,06,40,5.70
2012,03,05,06,41,5.70
2012,03,05,06,42,5.70
2012,03,05,06,43,5.70
2012,03,05,06,44,5.70
2012,03,05,06,45,5.70
2012,03,05,06,46,5.70
2012,03,05,06,47,5.70
2012,03,05,06,48,5.70
2012,03,05,06,49,5.70
2012,03,05,06,50,5.60
2012,03,05,06,51,5.60
2012,03,05,06,52,5.60
2012,03,05,06,53,5.60
2012,03,05,06,54,5.60
2012,03,05,06,55,5.50
2012,03,05,06,56,5.50
2012,03,05,06,57,5.50
2012,03,05,06,58,5.50
2012,03,05,06,59,5.50
2012,03,05,07,00,5.50
2012,03,05,07,01,5.50
2012,03,05,07,02,5.50
2012,03,05,07,03,5.50
2012,03,05,07,04,5.40
2012,03,05,07,05,5.40
2012,03,05,07,06,5.40
2012,03,05,07,07,5.40
2012,03,05,07,08,5.40
2012,03,05,07,09,5.40
2012,03,05,07,10,5.40
2012,03,05,07,11,5.40
2012,03,05,07,12,5.30
2012,03,05,07,13,5.30
2012,03,05,07,14,5.30
2012,03,05,07,15,5.30
2012,03,05,07,16,5.30
2012,03,05,07,17,5.30
2012,03,05,07,18,5.30
2012,03,05,07,19,5.20
2012,03,05,07,20,5.20
2012,03,05,07,21,5.20
2012,03,05,07,22,5.20
2012,03,05,07,23,5.20
2012,03,05,07,24,5.20
2012,03,05,07,25,5.20
2012,03,05,07,26,5.20
2012,03,05,07,27,5.10
2012,03,05,07,28,5.10
2012,03,05,07,29,5.10
2012,03,05,07,30,5.10
2012,03,05,07,31,5.10
2012,03,05,07,32,5.10
2012,03,05,07,33,5.10
2012,03,05,07,34,5.10
2012,03,05,07,35,5.10
2012,03,05,07,36,5.10
2012,03,05,07,37,5.10
2012,03,05,07,38,5.10
2012,03,05,07,39,5.10
2012,03,05,07,40,5.10
2012,03,05,07,41,5.00
2012,03,05,07,42,4.90
2012,03,05,07,43,4.90
2012,03,05,07,44,4.80
2012,03,05,07,45,4.70
2012,03,05,07,46,4.70
2012,03,05,07,47,4.60
2012,03,05,07,48,4.60
2012,03,05,07,49,4.60
2012,03,05,07,50,4.60
2012,03,05,07,51,4.60
2012,03,05,07,52,4.50
2012,03,05,07,53,4.50
2012,03,05,07,54,4.40
2012,03,05,07,55,4.40
2012,03,05,07,56,4.30
2012,03,05,07,57,4.30
2012,03,05,07,58,4.30
2012,03,05,07,59,4.20
2012,03,05,08,00,4.20
2012,03,05,08,01,4.20
2012,03,05,08,02,4.20
2012,03,05,08,03,4.20
2012,03,05,08,04,4.20
2012,03,05,08,05,4.20
2012,03,05,08,06,4.20
2012,03,05,08,07,4.20
2012,03,05,08,08,4.10
2012,03,05,08,09,4.10
2012,03,05,08,10,4.10
2012,03,05,08,11,4.10
2012,03,05,08,12,4.10
2012,03,05,08,13,4.10
2012,03,05,08,14,4.10
2012,03,05,08,15,4.10
2012,03,05,08,16,4.10
2012,03,05,08,17,4.10
2012,03,05,08,18,4.10
2012,03,05,08,19,4.10
2012,03,05,08,20,4.10
2012,03,05,08,21,4.10
2012,03,05,08,22,4.10
2012,03,05,08,23,4.10
2012,03,05,08,24,4.10
2012,03,05,08,25,4.10
2012,03,05,08,26,4.10
2012,03,05,08,27,4.00
2012,03,05,08,28,4.00
2012,03,05,08,29,4.00
2012,03,05,08,30,4.00
2012,03,05,08,31,4.00
2012,03,05,08,32,4.00
2012,03,05,08,33,4.00
2012,03,05,08,34,3.90
2012,03,05,08,35,3.90
2012,03,05,08,36,4.00
2012,03,05,08,37,4.00
2012,03,05,08,38,3.90
2012,03,05,08,39,4.00
2012,03,05,08,40,4.00
2012,03,05,08,41,4.00
2012,03,05,08,42,4.00
2012,03,05,08,43,4.00
2012,03,05,08,44,4.00
2012,03,05,08,45,4.00
2012,03,05,08,46,4.00
2012,03,05,08,47,4.10
2012,03,05,08,48,4.10
2012,03,05,08,49,4.10
2012,03,05,08,50,4.10
2012,03,05,08,51,4.20
2012,03,05,08,52,4.20
2012,03,05,08,53,4.20
2012,03,05,08,54,4.20
2012,03,05,08,55,4.20
2012,03,05,08,56,4.20
2012,03,05,08,57,4.20
2012,03,05,08,58,4.20
2012,03,05,08,59,4.20
2012,03,05,09,00,4.20
2012,03,05,09,01,4.20
2012,03,05,09,02,4.20
2012,03,05,09,03,4.30
2012,03,05,09,04,4.30
2012,03,05,09,05,4.40
2012,03,05,09,06,4.40
2012,03,05,09,07,4.50
2012,03,05,09,08,4.50
2012,03,05,09,09,4.50
2012,03,05,09,10,4.50
2012,03,05,09,11,4.50
2012,03,05,09,12,4.50
2012,03,05,09,13,4.50
2012,03,05,09,14,4.50
2012,03,05,09,15,4.60
2012,03,05,09,16,4.60
2012,03,05,09,17,4.70
2012,03,05,09,18,4.80
2012,03,05,09,19,4.80
2012,03,05,09,20,4.90
2012,03,05,09,21,5.00
2012,03,05,09,22,5.10
2012,03,05,09,23,5.10
2012,03,05,09,24,5.20
2012,03,05,09,25,5.20
2012,03,05,09,26,5.30
2012,03,05,09,27,5.40
2012,03,05,09,28,5.40
2012,03,05,09,29,5.40
2012,03,05,09,30,5.50
2012,03,05,09,31,5.60
2012,03,05,09,32,5.70
2012,03,05,09,33,5.70
2012,03,05,09,34,5.70
2012,03,05,09,35,5.70
2012,03,05,09,36,5.70
2012,03,05,09,37,5.80
2012,03,05,09,38,5.80
2012,03,05,09,39,5.90
2012,03,05,09,40,5.90
2012,03,05,09,41,6.00
2012,03,05,09,42,6.00
2012,03,05,09,43,6.00
2012,03,05,09,44,6.10
2012,03,05,09,45,6.20
2012,03,05,09,46,6.20
2012,03,05,09,47,6.20
2012,03,05,09,48,6.20
2012,03,05,09,49,6.30
2012,03,05,09,50,6.20
2012,03,05,09,51,6.20
2012,03,05,09,52,6.20
2012,03,05,09,53,6.20
2012,03,05,09,54,6.20
2012,03,05,09,55,6.20
2012,03,05,09,56,6.20
2012,03,05,09,57,6.20
2012,03,05,09,58,6.10
2012,03,05,09,59,6.00
2012,03,05,10,00,5.90
2012,03,05,10,01,5.80
2012,03,05,10,02,5.80
2012,03,05,10,03,5.70
2012,03,05,10,04,5.60
2012,03,05,10,05,5.50
2012,03,05,10,06,5.40
2012,03,05,10,07,5.30
2012,03,05,10,08,5.30
2012,03,05,10,09,5.30
2012,03,05,10,10,5.30
2012,03,05,10,11,5.30
2012,03,05,10,12,5.40
2012,03,05,10,13,5.40
2012,03,05,10,14,5.40
2012,03,05,10,15,5.40
2012,03,05,10,16,5.40
2012,03,05,10,17,5.40
2012,03,05,10,18,5.50
2012,03,05,10,19,5.50
2012,03,05,10,20,5.50
2012,03,05,10,21,5.60
2012,03,05,10,22,5.70
2012,03,05,10,23,5.80
2012,03,05,10,24,5.80
2012,03,05,10,25,5.80
2012,03,05,10,26,5.90
2012,03,05,10,27,5.90
2012,03,05,10,28,5.90
2012,03,05,10,29,5.80
2012,03,05,10,30,5.80
2012,03,05,10,31,5.90
2012,03,05,10,32,5.90
2012,03,05,10,33,5.90
2012,03,05,10,34,5.90
2012,03,05,10,35,5.90
2012,03,05,10,36,5.90
2012,03,05,10,37,5.90
2012,03,05,10,38,6.00
2012,03,05,10,39,6.10
2012,03,05,10,40,6.10
2012,03,05,10,41,6.10
2012,03,05,10,42,6.10
2012,03,05,10,43,6.10
2012,03,05,10,44,6.10
2012,03,05,10,45,6.10
2012,03,05,10,46,6.10
2012,03,05,10,47,6.10
2012,03,05,10,48,6.10
2012,03,05,10,49,6.10
2012,03,05,10,50,6.20
2012,03,05,10,51,6.10
2012,03,05,10,52,6.10
2012,03,05,10,53,6.10
2012,03,05,10,54,6.10
2012,03,05,10,55,6.20
2012,03,05,10,56,6.20
2012,03,05,10,57,6.20
2012,03,05,10,58,6.30
2012,03,05,10,59,6.20
2012,03,05,11,00,6.20
2012,03,05,11,01,6.20
2012,03,05,11,02,6.10
2012,03,05,11,03,6.10
2012,03,05,11,04,6.10
2012,03,05,11,05,6.10
2012,03,05,11,06,6.10
2012,03,05,11,07,6.10
2012,03,05,11,08,6.00
2012,03,05,11,09,6.00
2012,03,05,11,10,6.00
2012,03,05,11,11,6.00
2012,03,05,11,12,6.10
2012,03,05,11,13,6.20
2012,03,05,11,14,6.20
2012,03,05,11,15,6.20
2012,03,05,11,16,6.20
2012,03,05,11,17,6.20
2012,03,05,11,18,6.30
2012,03,05,11,19,6.30
2012,03,05,11,20,6.30
2012,03,05,11,21,6.30
2012,03,05,11,22,6.20
2012,03,05,11,23,6.20
2012,03,05,11,24,6.20
2012,03,05,11,25,6.20
2012,03,05,11,26,6.20
2012,03,05,11,27,6.20
2012,03,05,11,28,6.20
2012,03,05,11,29,6.20
2012,03,05,11,30,6.10
2012,03,05,11,31,6.10
2012,03,05,11,32,6.10
2012,03,05,11,33,6.10
2012,03,05,11,34,6.10
2012,03,05,11,35,6.10
2012,03,05,11,36,6.10
2012,03,05,11,37,6.20
2012,03,05,11,38,6.20
2012,03,05,11,39,6.20
2012,03,05,11,40,6.20
2012,03,05,11,41,6.10
2012,03,05,11,42,6.10
2012,03,05,11,43,6.10
2012,03,05,11,44,6.10
2012,03,05,11,45,6.00
2012,03,05,11,46,6.00
2012,03,05,11,47,6.10
2012,03,05,11,48,6.10
2012,03,05,11,49,6.20
2012,03,05,11,50,6.20
2012,03,05,11,51,6.20
2012,03,05,11,52,6.20
2012,03,05,11,53,6.20
2012,03,05,11,54,6.20
2012,03,05,11,55,6.20
2012,03,05,11,56,6.30
2012,03,05,11,57,6.40
2012,03,05,11,58,6.30
2012,03,05,11,59,6.30
2012,03,05,12,00,6.20
2012,03,05,12,01,6.20
2012,03,05,12,02,6.30
2012,03,05,12,03,6.40
2012,03,05,12,04,6.40
2012,03,05,12,05,6.40
2012,03,05,12,06,6.40
2012,03,05,12,07,6.40
2012,03,05,12,08,6.40
2012,03,05,12,09,6.30
2012,03,05,12,10,6.30
2012,03,05,12,11,6.30
2012,03,05,12,12,6.30
2012,03,05,12,13,6.20
2012,03,05,12,14,6.20
2012,03,05,12,15,6.20
2012,03,05,12,16,6.20
2012,03,05,12,17,6.20
2012,03,05,12,18,6.30
2012,03,05,12,19,6.30
2012,03,05,12,20,6.40
2012,03,05,12,21,6.40
2012,03,05,12,22,6.40
2012,03,05,12,23,6.30
2012,03,05,12,24,6.30
2012,03,05,12,25,6.20
2012,03,05,12,26,6.30
2012,03,05,12,27,6.30
2012,03,05,12,28,6.40
2012,03,05,12,29,6.50
2012,03,05,12,30,6.60
2012,03,05,12,31,6.70
2012,03,05,12,32,6.80
2012,03,05,12,33,6.90
2012,03,05,12,34,7.00
2012,03,05,12,35,7.00
2012,03,05,12,36,7.00
2012,03,05,12,37,7.10
2012,03,05,12,38,7.10
2012,03,05,12,39,7.00
2012,03,05,12,40,6.90
2012,03,05,12,41,6.90
2012,03,05,12,42,6.90
2012,03,05,12,43,6.90
2012,03,05,12,44,7.00
2012,03,05,12,45,7.00
2012,03,05,12,46,7.10
2012,03,05,12,47,7.10
2012,03,05,12,48,7.20
2012,03,05,12,49,7.10
2012,03,05,12,50,7.00
2012,03,05,12,51,6.90
2012,03,05,12,52,6.80
2012,03,05,12,53,6.70
2012,03,05,12,54,6.70
2012,03,05,12,55,6.60
2012,03,05,12,56,6.60
2012,03,05,12,57,6.60
2012,03,05,12,58,6.60
2012,03,05,12,59,6.70
2012,03,05,13,00,6.80
2012,03,05,13,01,7.00
2012,03,05,13,02,7.10
2012,03,05,13,03,7.10
2012,03,05,13,04,7.00
2012,03,05,13,05,7.00
2012,03,05,13,06,6.80
2012,03,05,13,07,6.80
2012,03,05,13,08,6.80
2012,03,05,13,09,6.80
2012,03,05,13,10,6.80
2012,03,05,13,11,6.80
2012,03,05,13,12,6.80
2012,03,05,13,13,6.80
2012,03,05,13,14,6.80
2012,03,05,13,15,6.80
2012,03,05,13,16,6.80
2012,03,05,13,17,6.80
2012,03,05,13,18,6.80
2012,03,05,13,19,6.70
2012,03,05,13,20,6.70
2012,03,05,13,21,6.70
2012,03,05,13,22,6.60
2012,03,05,13,23,6.60
2012,03,05,13,24,6.60
2012,03,05,13,25,6.60
2012,03,05,13,26,6.60
2012,03,05,13,27,6.60
2012,03,05,13,28,6.60
2012,03,05,13,29,6.60
2012,03,05,13,30,6.70
2012,03,05,13,31,6.80
2012,03,05,13,32,6.80
2012,03,05,13,33,6.80
2012,03,05,13,34,6.90
2012,03,05,13,35,6.90
2012,03,05,13,36,6.80
2012,03,05,13,37,6.80
2012,03,05,13,38,6.70
2012,03,05,13,39,6.60
2012,03,05,13,40,6.60
2012,03,05,13,41,6.60
2012,03,05,13,42,6.60
2012,03,05,13,43,6.60
2012,03,05,13,44,6.70
2012,03,05,13,45,6.70
2012,03,05,13,46,6.70
2012,03,05,13,47,6.70
2012,03,05,13,48,6.80
2012,03,05,13,49,6.80
2012,03,05,13,50,6.80
2012,03,05,13,51,6.70
2012,03,05,13,52,6.70
2012,03,05,13,53,6.80
2012,03,05,13,54,6.80
2012,03,05,13,55,7.00
2012,03,05,13,56,7.10
2012,03,05,13,57,7.20
2012,03,05,13,58,7.20
2012,03,05,13,59,7.20
2012,03,05,14,00,7.20
2012,03,05,14,01,7.20
2012,03,05,14,02,7.20
2012,03,05,14,03,7.10
2012,03,05,14,04,7.10
2012,03,05,14,05,7.20
2012,03,05,14,06,7.20
2012,03,05,14,07,7.20
2012,03,05,14,08,7.20
2012,03,05,14,09,7.20
2012,03,05,14,10,7.10
2012,03,05,14,11,7.00
2012,03,05,14,12,7.00
2012,03,05,14,13,7.00
2012,03,05,14,14,7.10
2012,03,05,14,15,7.10
2012,03,05,14,16,7.20
2012,03,05,14,17,7.20
2012,03,05,14,18,7.20
2012,03,05,14,19,7.10
2012,03,05,14,20,7.00
2012,03,05,14,21,7.00
2012,03,05,14,22,7.00
2012,03,05,14,23,7.00
2012,03,05,14,24,7.00
2012,03,05,14,25,7.00
2012,03,05,14,26,7.00
2012,03,05,14,27,7.10
2012,03,05,14,28,7.10
2012,03,05,14,29,7.20
2012,03,05,14,30,7.20
2012,03,05,14,31,7.30
2012,03,05,14,32,7.30
2012,03,05,14,33,7.30
2012,03,05,14,34,7.30
2012,03,05,14,35,7.40
2012,03,05,14,36,7.50
2012,03,05,14,37,7.50
2012,03,05,14,38,7.60
2012,03,05,14,39,7.70
2012,03,05,14,40,7.60
2012,03,05,14,41,7.60
2012,03,05,14,42,7.70
2012,03,05,14,43,7.70
2012,03,05,14,44,7.70
2012,03,05,14,45,7.70
2012,03,05,14,46,7.70
2012,03,05,14,47,7.70
2012,03,05,14,48,7.70
2012,03,05,14,49,7.80
2012,03,05,14,50,7.80
2012,03,05,14,51,7.80
2012,03,05,14,52,7.80
2012,03,05,14,53,7.80
2012,03,05,14,54,7.60
2012,03,05,14,55,7.50
2012,03,05,14,56,7.50
2012,03,05,14,57,7.50
2012,03,05,14,58,7.50
2012,03,05,14,59,7.50
2012,03,05,15,00,7.50
2012,03,05,15,01,7.40
2012,03,05,15,02,7.40
2012,03,05,15,03,7.40
2012,03,05,15,04,7.30
2012,03,05,15,05,7.20
2012,03,05,15,06,7.20
2012,03,05,15,07,7.10
2012,03,05,15,08,7.10
2012,03,05,15,09,7.10
2012,03,05,15,10,7.10
2012,03,05,15,11,7.10
2012,03,05,15,12,7.10
2012,03,05,15,13,7.10
2012,03,05,15,14,7.20
2012,03,05,15,15,7.20
2012,03,05,15,16,7.20
2012,03,05,15,17,7.20
2012,03,05,15,18,7.20
2012,03,05,15,19,7.20
2012,03,05,15,20,7.20
2012,03,05,15,21,7.10
2012,03,05,15,22,7.10
2012,03,05,15,23,7.10
2012,03,05,15,24,7.10
2012,03,05,15,25,7.10
2012,03,05,15,26,7.00
2012,03,05,15,27,7.00
2012,03,05,15,28,7.00
2012,03,05,15,29,7.10
2012,03,05,15,30,7.10
2012,03,05,15,31,7.20
2012,03,05,15,32,7.30
2012,03,05,15,33,7.30
2012,03,05,15,34,7.40
2012,03,05,15,35,7.30
2012,03,05,15,36,7.30
2012,03,05,15,37,7.10
2012,03,05,15,38,7.10
2012,03,05,15,39,7.00
2012,03,05,15,40,7.00
2012,03,05,15,41,6.90
2012,03,05,15,42,6.90
2012,03,05,15,43,6.90
2012,03,05,15,44,6.90
2012,03,05,15,45,6.80
2012,03,05,15,46,6.80
2012,03,05,15,47,6.70
2012,03,05,15,48,6.60
2012,03,05,15,49,6.60
2012,03,05,15,50,6.60
2012,03,05,15,51,6.60
2012,03,05,15,52,6.60
2012,03,05,15,53,6.60
2012,03,05,15,54,6.60
2012,03,05,15,55,6.60
2012,03,05,15,56,6.60
2012,03,05,15,57,6.60
2012,03,05,15,58,6.60
2012,03,05,15,59,6.60
2012,03,05,16,00,6.60
2012,03,05,16,01,6.60
2012,03,05,16,02,6.50
2012,03,05,16,03,6.40
2012,03,05,16,04,6.40
2012,03,05,16,05,6.40
2012,03,05,16,06,6.40
2012,03,05,16,07,6.40
2012,03,05,16,08,6.40
2012,03,05,16,09,6.40
2012,03,05,16,10,6.40
2012,03,05,16,11,6.40
2012,03,05,16,12,6.30
2012,03,05,16,13,6.30
2012,03,05,16,14,6.30
2012,03,05,16,15,6.20
2012,03,05,16,16,6.20
2012,03,05,16,17,6.20
2012,03,05,16,18,6.20
2012,03,05,16,19,6.20
2012,03,05,16,20,6.10
2012,03,05,16,21,6.10
2012,03,05,16,22,6.10
2012,03,05,16,23,6.10
2012,03,05,16,24,6.00
2012,03,05,16,25,6.00
2012,03,05,16,26,6.00
2012,03,05,16,27,5.90
2012,03,05,16,28,5.90
2012,03,05,16,29,5.90
2012,03,05,16,30,5.90
2012,03,05,16,31,5.80
2012,03,05,16,32,5.70
2012,03,05,16,33,5.70
2012,03,05,16,34,5.70
2012,03,05,16,35,5.70
2012,03,05,16,36,5.70
2012,03,05,16,37,5.70
2012,03,05,16,38,5.70
2012,03,05,16,39,5.70
2012,03,05,16,40,5.70
2012,03,05,16,41,5.60
2012,03,05,16,42,5.60
2012,03,05,16,43,5.60
2012,03,05,16,44,5.50
2012,03,05,16,45,5.50
2012,03,05,16,46,5.50
2012,03,05,16,47,5.50
2012,03,05,16,48,5.50
2012,03,05,16,49,5.50
2012,03,05,16,50,5.50
2012,03,05,16,51,5.50
2012,03,05,16,52,5.50
2012,03,05,16,53,5.40
2012,03,05,16,54,5.40
2012,03,05,16,55,5.40
2012,03,05,16,56,5.40
2012,03,05,16,57,5.40
2012,03,05,16,58,5.30
2012,03,05,16,59,5.30
2012,03,05,17,00,5.30
2012,03,05,17,01,5.30
2012,03,05,17,02,5.30
2012,03,05,17,03,5.30
2012,03,05,17,04,5.20
2012,03,05,17,05,5.20
2012,03,05,17,06,5.20
2012,03,05,17,07,5.20
2012,03,05,17,08,5.20
2012,03,05,17,09,5.10
2012,03,05,17,10,5.10
2012,03,05,17,11,5.10
2012,03,05,17,12,5.10
2012,03,05,17,13,5.10
2012,03,05,17,14,5.10
2012,03,05,17,15,5.10
2012,03,05,17,16,5.10
2012,03,05,17,17,5.10
2012,03,05,17,18,5.10
2012,03,05,17,19,5.10
2012,03,05,17,20,5.10
2012,03,05,17,21,5.10
2012,03,05,17,22,4.90
2012,03,05,17,23,4.90
2012,03,05,17,24,4.90
2012,03,05,17,25,4.90
2012,03,05,17,26,4.90
2012,03,05,17,27,4.90
2012,03,05,17,28,4.90
2012,03,05,17,29,4.90
2012,03,05,17,30,4.90
2012,03,05,17,31,4.90
2012,03,05,17,32,4.90
2012,03,05,17,33,4.90
2012,03,05,17,34,4.90
2012,03,05,17,35,4.80
2012,03,05,17,36,4.80
2012,03,05,17,37,4.80
2012,03,05,17,38,4.80
2012,03,05,17,39,4.80
2012,03,05,17,40,4.70
2012,03,05,17,41,4.70
2012,03,05,17,42,4.70
2012,03,05,17,43,4.70
2012,03,05,17,44,4.70
2012,03,05,17,45,4.70
2012,03,05,17,46,4.60
2012,03,05,17,47,4.60
2012,03,05,17,48,4.60
2012,03,05,17,49,4.60
2012,03,05,17,50,4.60
2012,03,05,17,51,4.60
2012,03,05,17,52,4.50
2012,03,05,17,53,4.50
2012,03,05,17,54,4.40
2012,03,05,17,55,4.30
2012,03,05,17,56,4.30
2012,03,05,17,57,4.20
2012,03,05,17,58,4.20
2012,03,05,17,59,4.20
2012,03,05,18,00,4.20
2012,03,05,18,01,4.20
2012,03,05,18,02,4.20
2012,03,05,18,03,4.20
2012,03,05,18,04,4.10
2012,03,05,18,05,4.00
2012,03,05,18,06,4.00